Flag for U.S.A. Weather past 2 weeks in Jacksonville, Florida, U.S.A.

Now
81 °F

Scattered clouds.


Feels Like: 83 °F
Forecast: 70 / 86 °F
Wind: 10 mph from Northeast

Location: Jacksonville Naval Air Station

Current Time: May 28, 2015 at 10:12:00 PM

Latest Report: May 28, 2015 at 8:53 PM


Visibility: 10 mi

Pressure: 30.13 "Hg

Humidity: 56%

Dew point: 64 °F

Location of JacksonvilleLocation

Historic Weather in Jacksonville — Graph

°F

Jacksonville temperature yesterday

Maximum temperature yesterday: 88 °F (at 1:53 PM)
Minimum temperature yesterday: 79 °F (at 3:53 AM)
Average temperature yesterday: 83 °F

Past Weeks' High & Low Weather Summary

 TemperatureHumidityPressure
High96 °F (May 21, 3:53 PM)88% (May 14, 6:53 AM)30.30 "Hg (May 14, 6:53 AM)
Low74 °F (May 16, 4:53 AM)31% (May 22, 2:53 PM)29.87 "Hg (May 21, 5:53 PM)
Average82 °F62%30.14 "Hg
* Reported May 13 8:53 PM — May 28 8:53 PM, Jacksonville, Weather by CustomWeather, © 2015

Note: Actual official high and low records may vary slightly from our data, if they occured in-between our weather recording intervals... More about our weather records

Advertising

Jacksonville weather history for previous 24 hours

 ConditionsComfort  
Time TempWeatherWind HumidityBarometerVisibility
8:53 PM
Thu, May 28
81 °FScattered clouds.10 mph56%30.13 "Hg10 mi
7:53 PM82 °FPartly sunny.12 mph55%30.13 "Hg10 mi
6:53 PM84 °FBroken clouds.13 mph49%30.12 "Hg10 mi
5:53 PM85 °FScattered clouds.15 mph46%30.11 "Hg10 mi
4:53 PM86 °FPartly sunny.9 mph40%30.12 "Hg10 mi
3:53 PM87 °FPartly sunny.10 mph37%30.13 "Hg10 mi
2:53 PM88 °FPartly sunny.13 mph36%30.14 "Hg10 mi
1:53 PM87 °FBroken clouds.12 mph39%30.16 "Hg10 mi
12:53 PM86 °FBroken clouds.13 mph39%30.18 "Hg10 mi
11:53 AM86 °FBroken clouds.14 mph42%30.19 "Hg10 mi
10:53 AM85 °FBroken clouds.9 mph43%30.19 "Hg10 mi
9:53 AM83 °FBroken clouds.13 mph51%30.19 "Hg10 mi
8:53 AM81 °FBroken clouds.10 mph58%30.18 "Hg10 mi
7:53 AM79 °FScattered clouds.6 mph65%30.16 "Hg10 mi
6:53 AM77 °FPassing clouds.3 mph69%30.14 "Hg10 mi
5:53 AM77 °FPassing clouds.5 mph69%30.13 "Hg10 mi
4:53 AM77 °FPassing clouds.3 mph69%30.12 "Hg10 mi
3:53 AM78 °FPassing clouds.3 mph66%30.13 "Hg10 mi
2:53 AM78 °FPassing clouds.6 mph66%30.13 "Hg10 mi
1:53 AM78 °FPassing clouds.7 mph64%30.15 "Hg10 mi
12:53 AM79 °FPassing clouds.9 mph62%30.16 "Hg10 mi
11:53 PM
Wed, May 27
79 °FPassing clouds.8 mph65%30.17 "Hg10 mi
10:53 PM80 °FPassing clouds.8 mph60%30.18 "Hg10 mi
Weather by CustomWeather, © 2015

See weather overviewHow to use our weather pages